Location: Helsinki
(60.1699°N, 24.9384°E)
Time: 19:59:26
(UTC+02:00)

Transit 4A - Pass Details

Date: 30 October 2020
Orbit: 862 x 982 km, 66.8° (Epoch: 30 November)

Event Time Altitude Azimuth Distance (km) Brightness Sun altitude
Rises 23:00:31 0° 311° (NW) 3,696 11.7 -42.5°
Reaches altitude 10° 23:03:08 10° 308° (NW) 2,748 10.8 -42.7°
Enters shadow 23:04:58 20° 304° (WNW) 2,105 10.1 -42.7°
Maximum altitude 23:09:27 60° 231° (SW) 1,119 - -42.9°
Drops below altitude 10° 23:15:40 10° 153° (SSE) 2,707 - -43.1°
Sets 23:18:13 0° 150° (SSE) 3,638 - -43.2°
